Location: Dvur Kralove nad Labem
(50.4330°N, 15.8170°E)
Time: 15:05:25
(UTC+02:00)

ISS - Pass Details

Date: 20 May 2018
Orbit: 402 x 407 km, 51.6° (Epoch: 24 May)

Event Time Altitude Azimuth Distance (km) Brightness Sun altitude
Rises 21:32:51 0° 191° (S) 2,307 -0.3 -6.8°
Reaches altitude 10° 21:36:12 10° 154° (SSE) 1,453 -1.6 -7.2°
Maximum altitude 21:37:10 11° 136° (SE) 1,394 -1.8 -7.3°
Drops below altitude 10° 21:38:08 10° 119° (ESE) 1,455 -1.6 -7.4°
Sets 21:41:30 0° 82° (E) 2,319 -0.3 -7.8°
